TUBIN
1 48900U 21059X   25270.47143094  .00103169  00000-0  76167-3 0  9996
2 48900  97.6767  89.5425 0002594 185.0159 175.1079 15.72676334237238
LEDSAT
1 49069U 21073D   25270.23516340  .00435974  72431-4  15457-2 0  9998
2 49069  97.3751 357.8874 0003770 323.9168  36.1849 15.88977874228640
CUTE
1 49263U 21088D   25270.53920769  .00028558  00000-0  46977-3 0  9994
2 49263  97.4410 350.3284 0006399 178.0668 182.0611 15.52308642221458
TeikyoSat 4
1 49396U 21102B   25270.04786205  .00004512  00000-0  29577-3 0  9990
2 49396  97.4006 304.5023 0013862 115.4492 244.8173 15.08103643213042
Z-Sat
1 49399U 21102E   25270.53646826  .00007638  00000-0  40656-3 0  9994
2 49399  97.3699 308.7748 0019394  83.7773 276.5668 15.15344041213629
KOSEN 1
1 49402U 21102H   25269.62005398  .00011908  00000-0  52555-3 0  9996
2 49402  97.3594 312.1577 0016712  61.1700 299.1212 15.21782839213868
HO-113
1 50466U 21131B   25270.61902321  .00001239  00000-0  39953-3 0  9996
2 50466  98.5079 359.4260 0004692 153.7801 206.3626 14.40946591197292
SNUGLITE 2
1 52899U 22065F   25270.37353297  .00002720  00000-0  53382-3 0  9998
2 52899  98.1850  51.3918 0008517 124.8383 235.3621 14.63492932172547
UmKA 1 (RS40S)
1 57172U 23091G   25270.57746821  .00010317  00000-0  52974-3 0  9995
2 57172  97.5457 325.4036 0012809 318.1509  41.8743 15.16631024124149
CubeBel-2 (EU11S)
1 57175U 23091K   25270.49189711  .00015351  00000-0  68538-3 0  9994
2 57175  97.5457 327.1900 0010384 324.6536  35.4010 15.21411295124259
ENSO
1 58470U 23185J   25265.87349204  .00212868  00000-0  15756-2 0  9993
2 58470  97.3609 345.3295 0002510  57.5685 302.5821 15.72293598101470
SONATE-2
1 59112U 24043Q   25269.83784168  .00031818  00000-0  80299-3 0  9992
2 59112  97.5275  43.5730 0010760  84.8095 275.4378 15.39725859 87123
MO-122
1 60209U 24125G   25270.14430020  .00034302  00000-0  84535-3 0  9991
2 60209  97.2652 120.7539 0018651 101.6300 258.7042 15.40309358 68795
GRBBeta
1 60237U 24128C   25270.57071895  .00008580  00000-0  61658-3 0  9993
2 60237  61.9922  55.7943 0056869  80.9552 279.7969 15.03641598 66738
Curium One
1 60242U 24128H   25270.60245027  .00015231  00000-0  99105-3 0  9992
2 60242  61.9818  52.1786 0056508  77.6841 283.0571 15.06874019 66802
ROBUSTA-3A
1 60243U 24128J   25270.57544320  .00013406  00000-0  88839-3 0  9991
2 60243  61.9892  53.4930 0056312  75.1390 285.5930 15.06297994 66789
CatSat
1 60246U 24125J   25270.57396452  .00033994  00000-0  10049-2 0  9993
2 60246  97.2470 119.0896 0040668  62.9906 297.5480 15.34015672 66820
HYPERVIEW-1G (RS66S)
1 61772U 24199AP  25270.65794831  .00040423  00000-0  99310-3 0  9995
2 61772  97.3334 139.5234 0013170 147.9801 212.2249 15.40462191 93875
AO-123
1 61781U 24199AY  25270.65517068  .00012299  00000-0  42559-3 0  9993
2 61781  97.3360 137.0106 0015786 160.4180 199.7670 15.29901242 93701
ZIMSAT 2
1 61783U 24199BA  25270.65901281  .00089207  00000-0  15437-2 0  9996
2 61783  97.3281 141.2713 0012420 138.5421 221.6776 15.50540046 97141
HADES-R (SO-124)
1 62690U 25009CK  25270.20690231  .00091066  00000-0  23657-2 0  9995
2 62690  97.3987 351.1518 0001810  91.7325 268.4127 15.38604374 38944
HYDRA-T
1 62692U 25009CM  25270.16666767  .00090399  00000-0  23101-2 0  9991
2 62692  97.4009 351.2071 0001535  87.5780 272.5641 15.39113491 38942
JINJUSat 1B
1 63210U 25052A   25270.47318768  .00021312  00000-0  90108-3 0  9996
2 63210  97.4238 163.2836 0002209 329.5523  30.5586 15.23239875 29966
NUSHSAT 1
1 63211U 25052B   25270.24540238  .00024640  00000-0  10244-2 0  9990
2 63211  97.4231 163.1025 0002416 340.1363  19.9779 15.23778273 29932
TEVEL2-4
1 63213U 25052D   25270.28437668  .00022376  00000-0  94294-3 0  9990
2 63213  97.4149 162.8394 0002614  11.5347 348.5949 15.23339712 29939
TEVEL2-5
1 63214U 25052E   25270.22131874  .00022430  00000-0  94638-3 0  9998
2 63214  97.4152 162.7716 0002604  12.0527 348.0771 15.23298757 29926
TEVEL2-6
1 63215U 25052F   25270.55480535  .00022721  00000-0  95940-3 0  9996
2 63215  97.4148 163.0927 0002591  11.1143 349.0151 15.23269828 29974
TEVEL2-1
1 63217U 25052H   25270.12297764  .00023683  00000-0  10080-2 0  9990
2 63217  97.4114 162.5368 0003403  19.0002 341.1361 15.22987705 29905
TEVEL2-3
1 63218U 25052J   25270.25436903  .00023093  00000-0  98263-3 0  9990
2 63218  97.4124 162.6694 0003438  18.7540 341.3823 15.23003587 29926
TEVEL2-2
1 63219U 25052K   25270.25512052  .00023283  00000-0  99105-3 0  9998
2 63219  97.4123 162.6674 0003433  19.0160 341.1204 15.22989776 29924
TEVEL2-9
1 63237U 25052AD  25270.21343853  .00021162  00000-0  93636-3 0  9992
2 63237  97.4186 162.4307 0007740  10.4766 349.6630 15.21668413 29899
TEVEL2-7
1 63238U 25052AE  25270.22115705  .00020625  00000-0  91525-3 0  9995
2 63238  97.4191 162.4251 0007848  10.1095 350.0297 15.21572580 29899
TEVEL2-8
1 63239U 25052AF  25270.61998254  .00021412  00000-0  95031-3 0  9998
2 63239  97.4189 162.8066 0007838   9.0170 351.1205 15.21559996 29959
HYDRA-W
1 63490U 25052BL  25270.25138238  .00061897  00000-0  21239-2 0  9994
2 63490  97.4126 163.6132 0009831   5.0547 355.0791 15.29881723 29981
HADES-ICM (SO-125)
1 63492U 25052BN  25270.50610830  .00053470  00000-0  18857-2 0  9997
2 63492  97.4137 163.7467 0010364   7.2878 352.8511 15.29023873 30016
